Temperature
24 24 25 25 21 19 21 23 26 26 26 27 27 27 26 25 24 22 22 22 22 22 21 20 21 21 20 20 20 20 20 20 20 20 20 19 19 19 19 19 19 19 19 19 19 18 18 18 18
24 24 25 24 20 20 21 24 26 26 27 28 27 26 25 24 23 22 21 22 22 22 21 20 20 20 20 20 20 20 20 20 19 19 19 19 19 19 19 19 19 19 18 18 18 18 18 18 18
24 24 24 20 20 20 22 24 26 28 29 28 27 27 25 23 22 22 22 22 22 22 21 20 20 20 20 20 20 20 19 19 19 19 19 19 19 19 19 19 19 18 18 18 18 18 18 18 18
24 24 23 19 21 21 23 25 26 27 29 28 27 25 25 24 24 23 22 22 22 21 21 20 20 20 20 20 20 20 20 19 19 19 19 19 19 19 18 18 18 18 18 18 18 18 18 18 18
23 23 20 19 20 22 24 26 27 27 28 27 26 24 24 24 24 23 22 22 22 21 21 20 20 20 20 20 20 20 20 19 19 19 19 19 18 18 18 18 19 19 18 18 18 18 18 18 18
22 20 19 19 21 23 25 27 27 27 27 26 25 23 22 23 23 22 22 22 22 21 21 20 20 20 20 20 20 20 20 19 19 19 19 19 19 18 19 19 19 19 18 18 18 18 18 18 18
21 17 18 20 21 22 25 27 27 27 26 26 25 22 22 22 23 22 22 22 22 22 21 20 20 20 20 20 20 20 20 19 19 19 19 19 19 19 19 19 19 19 19 18 18 18 18 18 18
21 17 19 20 21 22 25 26 27 27 26 26 26 23 22 22 22 22 21 22 22 21 21 21 20 20 20 20 20 20 19 19 19 19 19 19 19 19 19 19 19 19 19 18 18 18 18 18 18
21 17 17 20 21 22 25 25 27 27 27 26 26 26 25 23 22 21 21 21 21 21 21 21 20 20 20 20 20 20 19 19 19 19 19 19 19 19 19 19 19 18 18 18 18 18 19 18 18
20 16 18 21 22 23 24 25 26 26 25 25 25 26 25 24 23 21 21 21 21 21 21 21 21 20 20 20 20 20 19 19 19 19 19 19 19 18 18 18 18 18 18 18 18 18 19 18 18
19 18 20 22 24 25 24 25 27 25 24 24 24 25 25 24 23 22 21 22 22 22 21 21 21 21 20 20 20 20 19 19 19 19 19 19 19 18 18 18 18 18 18 18 18 18 18 18 18
20 20 22 23 25 25 25 26 26 26 26 27 27 27 25 24 23 23 22 22 22 22 22 21 21 21 20 20 20 20 20 19 19 19 19 19 19 19 19 18 18 18 18 18 18 18 18 18 18
20 20 23 24 25 25 25 25 26 27 27 27 26 26 25 24 24 24 23 22 22 22 22 22 21 21 21 20 20 20 20 20 20 19 19 19 19 19 18 18 18 18 18 18 18 17 18 18 18
20 21 22 24 24 25 24 25 25 27 27 26 25 25 25 24 24 24 23 22 22 22 22 22 21 21 21 20 20 20 20 20 19 19 19 19 19 19 18 18 18 17 17 17 17 17 17 17 17
23 21 20 22 23 24 25 24 24 27 27 26 25 25 25 25 24 24 23 23 23 23 23 22 21 21 21 21 20 20 20 19 19 19 19 19 19 18 18 18 17 17 17 17 17 17 17 16 17
21 20 20 21 22 24 24 22 24 27 26 26 25 25 25 25 25 24 23 23 23 23 23 22 21 21 21 20 20 20 19 19 19 19 19 19 18 18 18 17 17 17 17 17 17 17 16 16 16
19 19 20 21 23 23 23 22 24 27 27 26 26 25 24 24 24 24 24 24 23 23 23 22 21 21 21 20 20 19 19 19 19 19 18 18 18 18 17 17 17 17 17 16 16 16 16 16 16
18 20 20 21 22 23 22 22 24 26 26 26 25 25 24 23 24 24 24 24 24 23 23 22 21 21 20 20 19 19 19 19 19 18 18 18 18 18 17 17 17 16 16 16 16 16 15 15 15
20 20 19 21 22 22 22 23 24 25 25 25 24 24 23 23 23 24 24 24 24 23 22 22 21 21 20 20 20 19 19 18 18 18 18 18 17 17 17 17 16 16 16 16 15 15 15 15 15
20 19 20 21 22 23 21 22 23 24 24 24 24 23 22 22 23 24 24 24 24 23 22 22 21 21 21 20 20 20 19 18 18 18 18 17 17 17 16 16 16 15 15 15 15 15 14 14 14
20 19 20 21 22 22 22 22 22 24 23 22 21 21 21 22 22 23 24 24 24 23 23 22 21 21 21 20 20 19 19 18 17 17 17 17 16 16 16 16 15 15 14 14 14 14 14 13 13
19 21 21 22 21 19 21 20 21 22 21 19 18 18 18 19 20 22 22 23 23 23 22 22 21 21 21 20 20 19 19 18 17 17 16 16 16 15 15 15 14 14 14 13 13 13 13 13 12
20 22 22 22 21 20 20 20 20 21 19 17 16 16 16 17 18 19 20 21 21 22 22 21 21 21 20 20 19 19 18 17 17 16 15 15 15 14 14 14 14 13 13 13 12 12 12 12 12
22 22 21 19 18 19 20 21 20 19 19 17 16 15 15 16 16 17 18 19 20 20 20 20 20 20 19 19 18 18 18 17 16 15 15 14 14 14 13 13 13 12 12 12 12 11 11 11 11
21 18 17 18 17 18 20 21 18 17 18 16 15 15 14 15 15 16 17 17 18 19 19 19 19 18 18 17 17 17 17 16 15 15 14 14 13 13 12 12 12 11 11 11 11 10 10 10 10
20 18 17 18 18 18 20 19 17 16 15 15 14 14 14 14 14 15 15 16 16 17 17 17 17 17 17 16 16 16 16 15 14 14 13 13 12 12 12 11 11 11 10 10 10 10 9 9 9
20 18 17 17 19 19 18 17 17 16 15 14 14 13 13 13 13 14 14 14 15 15 16 16 16 16 16 15 15 15 14 14 13 13 12 12 11 11 10 10 10 10 9 9 9 9 9 8 8
20 19 16 16 17 18 19 18 17 16 15 14 13 13 12 13 13 13 13 13 14 14 14 15 15 15 15 14 14 13 13 13 12 12 11 11 10 10 9 9 9 9 8 8 8 8 8 7 7
19 18 17 15 16 17 17 17 16 16 15 14 13 12 12 12 12 12 12 12 13 13 13 13 13 13 13 13 13 12 12 11 11 11 10 10 9 9 8 8 8 8 7 7 7 7 7 6 6
18 17 16 16 16 16 16 15 15 14 14 13 12 11 11 11 12 12 12 12 12 12 12 12 12 12 12 12 11 11 10 10 10 9 9 8 8 8 8 7 7 7 7 7 6 6 6 6 5
Wind_Speed
15 13 1 3 5 4 3 4 3 5 4 2 5 9 9 5 5 5 5 17 20 17 18 21 23 23 22 22 21 20 20 20 20 20 20 20 20 20 19 18 17 15 14 13 12 12 11 11 12
7 6 4 5 4 2 6 4 3 7 5 7 8 8 7 6 7 10 8 18 21 18 18 20 23 23 22 22 21 21 20 20 20 20 20 20 19 19 18 17 15 14 13 12 11 10 9 9 10
6 2 3 4 2 5 6 6 5 6 5 7 6 5 6 8 10 8 12 21 19 16 17 21 23 23 22 22 21 21 20 20 20 20 20 19 19 18 17 16 14 13 12 10 9 8 7 7 8
4 5 5 2 7 9 8 15 12 7 2 3 8 7 5 5 7 13 21 21 19 14 17 20 23 22 22 22 22 21 21 20 20 20 19 19 18 17 16 15 13 12 11 9 8 7 6 5 6
4 4 2 4 9 9 11 14 13 8 3 4 9 8 5 5 18 24 21 21 19 14 15 19 22 22 22 22 22 21 21 21 20 20 19 19 18 17 16 15 13 12 10 9 7 6 4 3 4
3 4 2 7 11 11 11 10 10 8 4 7 10 8 5 11 20 21 20 18 19 17 14 18 21 22 22 22 22 21 21 21 21 20 20 19 18 17 16 15 13 12 10 8 7 5 4 3 3
5 4 7 9 10 13 16 11 8 6 2 6 9 8 6 11 17 17 17 17 17 16 14 14 17 19 21 21 21 21 21 21 21 20 20 19 18 17 16 15 14 12 11 9 8 6 5 3 2
6 5 6 7 8 13 14 10 7 5 3 5 7 11 9 12 13 16 15 15 15 15 13 12 14 16 17 18 20 21 21 21 21 20 20 19 18 17 16 15 14 13 12 11 9 8 6 4 1
4 3 7 8 8 11 11 10 11 5 2 2 4 8 15 18 15 17 15 13 13 14 12 11 11 14 15 16 18 20 21 21 21 20 20 19 17 16 15 15 15 14 13 11 10 8 6 4 3
6 6 10 9 9 11 14 13 11 4 2 3 6 8 18 19 18 19 20 19 17 16 14 12 12 13 15 15 15 16 16 18 17 17 17 16 16 15 14 15 16 14 13 11 10 9 7 5 4
7 9 9 12 15 13 14 15 9 3 5 10 18 19 20 19 18 19 20 20 20 19 17 15 14 13 13 10 13 12 12 14 15 16 17 16 14 13 13 12 13 13 12 9 8 8 7 5 3
5 8 9 11 13 12 13 11 9 6 10 12 20 24 22 20 19 19 20 19 18 19 19 17 16 13 12 12 11 11 10 11 11 15 17 14 9 8 9 10 11 10 9 7 6 5 6 3 1
8 11 13 13 14 14 13 11 9 7 5 10 14 18 21 20 17 15 17 17 18 19 19 19 18 17 13 11 10 11 10 11 13 14 16 15 8 6 7 8 10 10 9 7 5 4 2 3 5
8 9 10 11 14 11 11 11 6 6 5 9 15 16 16 16 16 12 13 16 18 19 19 19 20 19 15 13 11 9 11 12 13 13 16 16 12 8 6 5 6 7 8 6 4 3 2 4 6
7 8 12 10 9 9 6 9 8 7 5 9 14 16 17 15 13 13 15 16 19 19 19 18 19 18 18 16 13 10 12 13 11 12 15 16 14 11 8 5 4 6 7 6 4 4 4 4 6
4 3 6 11 7 9 5 11 13 8 4 8 12 15 18 17 17 13 12 12 13 15 16 19 18 17 17 14 11 8 10 11 10 12 13 14 13 12 9 4 4 7 7 6 4 4 5 5 5
3 2 6 9 7 5 6 10 12 9 6 8 11 13 16 14 14 14 13 11 10 12 13 16 14 16 15 12 9 6 7 7 8 10 10 11 12 12 9 5 5 8 6 4 4 4 4 4 4
5 4 5 7 7 4 8 13 13 10 8 10 10 12 14 16 16 14 13 12 9 9 10 12 12 13 13 11 8 6 6 5 5 6 8 10 10 11 10 7 7 8 5 5 5 6 5 4 3
5 6 9 10 9 6 11 16 16 12 8 8 9 11 13 12 11 11 11 10 7 6 8 11 13 14 13 10 9 7 6 5 5 4 7 9 10 11 10 6 6 5 5 6 6 5 6 4 2
8 9 11 12 10 7 11 16 13 9 6 6 8 12 14 12 9 10 8 8 12 11 10 9 11 13 13 11 8 5 6 6 5 5 8 10 10 10 9 7 6 5 6 6 5 4 3 3 3
10 9 10 10 11 8 5 9 9 2 5 8 7 8 10 12 12 10 9 8 9 10 11 11 11 11 11 11 10 9 7 6 4 6 5 7 10 10 10 9 8 6 5 5 5 4 5 3 3
10 10 9 7 5 6 3 4 7 2 7 10 10 10 10 9 8 7 7 7 7 8 10 10 10 10 11 13 13 14 9 7 6 6 6 7 10 11 11 10 9 6 5 6 5 4 4 4 3
10 9 5 4 2 4 4 1 7 3 6 8 10 12 11 9 9 8 5 4 3 5 8 10 9 9 10 10 12 11 9 8 9 10 10 8 8 10 10 11 9 6 5 6 7 6 6 4 3
8 2 4 4 4 2 4 1 5 4 3 9 10 12 12 11 10 10 9 8 7 6 7 9 10 8 8 10 9 10 13 13 13 12 10 8 7 7 9 11 10 8 7 7 7 7 8 7 6
3 5 4 4 3 5 5 3 2 7 9 13 13 12 12 11 11 11 12 11 10 10 9 9 11 10 9 10 10 11 12 12 13 12 11 9 7 7 7 8 8 8 8 9 8 7 8 7 7
4 9 7 4 3 4 3 2 4 11 14 15 14 13 12 12 11 12 12 12 12 12 11 11 13 12 11 12 12 11 12 10 9 11 10 9 8 8 8 9 9 10 10 10 9 6 7 7 7
5 5 9 6 1 1 2 4 5 10 13 14 13 12 12 11 12 12 12 13 13 13 13 13 14 14 13 13 13 13 13 13 12 12 11 9 9 9 10 10 9 10 10 10 8 7 7 7 7
7 7 6 5 4 3 3 2 4 10 12 12 11 11 11 10 11 12 12 13 13 13 14 15 15 15 14 13 13 13 13 13 13 12 12 11 10 9 10 9 8 8 9 9 8 7 8 9 7
3 3 4 4 5 5 2 2 4 9 12 13 12 11 10 10 11 11 11 12 13 13 14 15 15 16 15 14 14 14 13 13 13 12 12 11 10 9 10 10 10 10 10 9 9 8 8 8 7
7 3 4 4 2 2 3 1 8 12 13 13 12 11 10 10 10 11 12 12 13 14 14 14 14 15 14 14 15 15 14 13 13 12 12 11 11 9 9 10 11 12 12 10 10 9 8 7 6
Wind_Direction
329 326 333 68 46 38 271 242 211 245 228 179 124 110 105 92 135 150 130 140 136 141 147 147 143 139 137 133 130 127 124 120 116 112 110 109 108 107 106 105 103 101 98 95 90 84 78 75 75
328 332 21 57 78 330 276 234 196 234 207 132 110 103 91 78 99 111 122 141 138 140 144 147 145 142 140 138 135 133 130 126 122 118 116 114 113 112 111 110 109 106 104 100 95 89 82 76 73
317 350 53 62 157 207 257 274 279 276 212 146 113 81 87 118 117 124 141 140 136 138 142 146 145 144 143 142 141 138 136 133 130 126 124 122 120 119 119 118 116 114 111 107 103 98 91 83 76
20 24 39 74 249 244 246 277 288 296 292 106 109 75 63 111 123 135 140 140 137 137 142 146 145 146 146 146 145 144 142 140 137 134 131 129 128 127 127 126 126 125 123 120 117 113 107 97 85
62 62 15 288 265 265 269 276 286 282 231 127 106 94 55 44 118 134 142 144 140 137 141 145 145 147 149 149 149 149 147 145 142 140 138 136 136 136 136 137 137 138 138 136 136 136 134 122 99
54 81 166 252 267 277 283 289 300 289 159 130 108 105 87 121 129 144 148 147 144 143 143 146 147 149 150 151 152 152 151 149 147 146 145 144 145 145 146 147 148 150 151 153 158 165 171 167 120
140 147 210 235 265 281 280 293 297 299 189 156 130 106 119 141 144 150 149 145 144 145 145 147 150 152 151 151 152 152 152 152 152 152 152 152 152 153 155 157 159 161 165 171 180 191 200 202 153
158 149 223 234 251 270 277 296 296 298 232 155 129 132 153 165 149 145 145 142 145 149 151 151 151 151 151 152 155 155 155 156 157 158 159 159 160 162 165 166 169 173 179 185 195 206 217 231 237
137 140 224 230 234 260 287 306 307 320 181 156 146 151 153 152 139 140 143 142 149 155 158 156 155 154 153 155 159 159 160 162 163 165 166 164 167 170 172 177 180 185 190 197 206 216 230 251 267
153 193 230 236 242 266 287 290 296 331 316 123 113 131 142 147 145 152 157 159 162 165 169 166 163 161 160 163 159 162 165 167 167 170 170 170 174 178 181 187 190 194 200 208 218 229 243 259 269
182 200 230 247 253 262 278 284 284 204 225 177 158 157 153 154 157 163 168 170 169 169 171 174 172 169 169 164 162 168 169 171 174 176 177 178 182 189 194 192 198 201 205 214 229 240 250 255 261
232 247 237 250 257 261 264 274 282 228 217 191 166 160 158 162 166 170 173 175 170 171 175 176 176 174 177 168 172 175 176 180 183 187 187 185 188 193 191 186 192 195 201 211 231 241 253 265 255
239 258 263 259 260 256 262 268 269 267 196 164 165 161 162 166 169 170 169 172 172 175 178 179 178 179 179 172 179 182 184 187 191 192 195 193 191 184 180 183 187 192 201 208 225 234 231 99 98
235 249 267 268 262 257 256 269 279 257 157 155 162 166 166 170 171 167 165 172 177 180 180 181 182 182 179 179 183 184 188 188 192 197 198 196 191 180 173 176 183 189 194 197 201 201 136 106 102
242 270 291 282 266 257 259 287 261 242 177 168 173 170 171 174 175 179 180 181 182 182 182 183 184 183 182 183 186 184 187 186 190 195 195 193 188 179 171 162 168 179 175 159 142 117 106 102 99
343 322 289 286 267 260 222 261 267 261 201 197 189 182 178 180 177 177 182 184 182 179 181 183 186 184 183 182 182 178 182 182 186 184 186 187 182 174 161 149 155 154 137 126 116 109 99 95 105
1 255 266 286 270 252 221 250 262 257 242 222 205 191 183 178 172 171 172 176 187 181 177 183 182 179 178 170 163 156 160 166 171 169 171 174 168 163 148 138 136 133 118 108 114 95 101 103 99
247 254 272 273 290 284 253 253 259 256 247 240 204 190 174 172 178 172 167 173 185 181 176 178 174 170 163 154 140 130 122 128 136 145 153 154 147 141 131 123 123 122 109 99 96 94 79 87 95
249 278 286 281 283 280 256 255 254 247 249 232 200 182 168 164 166 157 163 168 160 169 180 179 174 169 164 160 152 142 134 121 109 101 115 122 123 124 119 111 105 104 108 112 113 105 91 67 56
265 278 283 292 293 287 263 256 248 235 225 207 180 158 151 149 147 151 154 159 162 175 184 186 181 173 172 164 152 134 124 109 98 91 86 98 108 113 115 113 107 98 103 99 97 102 101 65 38
258 246 258 273 304 316 280 273 257 250 88 73 80 107 118 136 146 153 159 161 167 179 178 183 184 175 166 148 132 120 106 101 102 99 91 85 97 101 104 105 104 98 102 106 98 100 111 116 48
254 245 243 270 306 301 8 271 277 164 83 76 66 72 83 86 100 123 142 159 174 180 176 176 179 167 162 154 152 152 156 148 136 123 108 93 90 93 98 99 99 98 99 103 97 92 105 117 114
231 246 245 259 267 312 346 175 290 33 90 88 77 72 68 72 80 85 91 125 142 153 161 162 154 157 158 153 153 150 142 127 124 119 112 100 87 87 95 99 100 96 94 94 89 85 79 82 100
227 278 2 40 75 324 263 145 302 351 126 117 91 75 65 63 64 65 59 59 61 85 119 128 124 128 138 135 134 139 138 135 133 128 122 111 100 90 90 95 94 92 91 89 89 88 85 82 80
144 96 33 3 26 248 252 146 307 22 71 104 98 78 62 54 52 54 56 58 59 68 86 104 114 111 113 118 121 125 129 132 134 131 125 119 110 103 97 95 92 91 93 93 91 86 80 78 81
171 137 155 183 212 285 335 115 67 72 77 83 82 76 67 56 51 53 53 56 58 62 72 87 97 100 102 106 109 110 112 113 115 117 120 117 114 110 104 96 94 93 91 88 83 79 78 77 77
148 169 171 143 221 310 302 117 117 104 93 88 84 78 70 61 56 55 55 56 59 62 66 77 86 86 88 94 98 100 102 107 111 110 108 108 109 108 99 94 88 83 81 80 79 77 73 73 69
160 153 100 122 159 240 287 168 185 154 125 107 94 85 76 69 63 59 59 59 60 64 68 71 77 81 82 86 92 97 98 102 106 107 107 105 101 99 97 90 83 77 74 74 73 72 70 71 66
54 74 103 137 159 163 237 304 340 149 130 117 105 94 84 75 70 67 66 65 65 66 68 72 76 80 82 85 89 92 93 97 99 100 100 100 97 94 92 89 83 76 71 68 72 71 70 71 63
85 83 109 135 248 170 154 19 35 102 109 111 105 96 88 83 80 76 73 72 71 71 72 73 76 79 82 86 88 89 90 91 91 91 91 91 90 87 86 84 81 77 72 65 65 63 58 61 59
Height
1528 1527 1526 1525 1527 1537 1536 1523 1512 1508 1504 1502 1501 1503 1506 1510 1515 1523 1520 1522 1526 1529 1533 1537 1540 1542 1545 1547 1549 1551 1553 1555 1557 1559 1560 1562 1563 1564 1566 1567 1568 1569 1570 1571 1572 1573 1574 1574 1575
1527 1526 1526 1525 1535 1547 1537 1516 1510 1505 1502 1501 1502 1503 1506 1511 1512 1515 1518 1523 1527 1530 1533 1537 1540 1543 1545 1547 1550 1552 1554 1556 1558 1559 1561 1562 1564 1565 1566 1567 1569 1570 1571 1572 1572 1573 1574 1575 1575
1527 1526 1526 1527 1536 1541 1529 1512 1507 1503 1501 1500 1502 1504 1508 1512 1513 1515 1518 1523 1527 1530 1534 1537 1540 1543 1545 1548 1550 1552 1554 1556 1558 1560 1561 1562 1564 1565 1566 1568 1569 1570 1571 1572 1573 1574 1575 1575 1576
1527 1527 1526 1532 1534 1526 1518 1508 1504 1504 1501 1500 1500 1506 1511 1514 1514 1516 1520 1525 1528 1531 1535 1538 1541 1543 1546 1548 1550 1552 1554 1556 1558 1560 1561 1562 1564 1565 1566 1568 1569 1570 1571 1572 1573 1574 1575 1575 1576
1526 1527 1531 1536 1530 1517 1508 1504 1503 1503 1501 1500 1499 1506 1512 1515 1516 1518 1522 1526 1528 1531 1535 1538 1541 1544 1546 1548 1551 1553 1555 1556 1558 1560 1561 1562 1563 1565 1566 1567 1568 1570 1571 1572 1573 1574 1575 1575 1576
1525 1526 1538 1540 1527 1512 1505 1502 1501 1499 1499 1500 1500 1505 1514 1516 1518 1521 1524 1527 1529 1532 1535 1539 1542 1544 1546 1549 1551 1553 1555 1556 1558 1559 1560 1562 1563 1564 1565 1566 1568 1569 1570 1571 1572 1573 1574 1575 1576
1524 1528 1534 1530 1524 1515 1503 1501 1501 1499 1497 1498 1498 1505 1513 1517 1519 1523 1526 1528 1530 1533 1536 1539 1541 1544 1546 1549 1550 1552 1554 1556 1557 1559 1560 1561 1562 1563 1564 1566 1567 1568 1569 1571 1572 1573 1574 1575 1576
1520 1524 1526 1525 1522 1513 1500 1500 1499 1501 1498 1498 1496 1501 1509 1515 1519 1523 1527 1529 1531 1533 1536 1538 1541 1544 1546 1548 1550 1552 1554 1555 1557 1558 1559 1560 1561 1562 1563 1565 1566 1567 1568 1569 1571 1572 1573 1575 1576
1517 1525 1527 1520 1516 1508 1499 1500 1497 1499 1496 1496 1495 1495 1500 1510 1516 1521 1525 1528 1530 1533 1535 1538 1540 1543 1545 1547 1549 1551 1553 1554 1555 1557 1558 1559 1560 1561 1562 1564 1565 1566 1567 1569 1570 1571 1572 1573 1575
1513 1523 1518 1509 1507 1504 1500 1499 1497 1499 1497 1495 1494 1496 1499 1506 1513 1518 1521 1524 1527 1530 1534 1536 1539 1541 1544 1546 1548 1550 1551 1553 1554 1556 1557 1558 1559 1560 1561 1562 1564 1565 1567 1568 1569 1570 1571 1572 1574
1508 1511 1507 1503 1502 1501 1499 1496 1495 1497 1497 1491 1489 1493 1497 1503 1509 1515 1518 1521 1524 1528 1531 1534 1537 1539 1541 1544 1546 1548 1550 1551 1553 1554 1555 1556 1557 1559 1560 1561 1563 1564 1565 1567 1568 1569 1570 1571 1572
1504 1501 1500 1499 1498 1498 1497 1494 1492 1492 1491 1488 1486 1488 1492 1499 1505 1511 1515 1520 1523 1525 1528 1531 1534 1537 1539 1542 1544 1546 1548 1549 1551 1552 1554 1555 1556 1557 1558 1559 1561 1563 1564 1566 1567 1568 1569 1570 1570
1501 1499 1496 1495 1495 1494 1493 1491 1489 1486 1486 1488 1488 1489 1491 1496 1501 1507 1512 1517 1520 1523 1526 1529 1532 1534 1537 1539 1542 1544 1546 1548 1549 1551 1552 1553 1554 1556 1557 1558 1560 1562 1564 1565 1567 1567 1568 1568 1569
1496 1494 1492 1491 1490 1489 1489 1486 1486 1483 1485 1487 1488 1489 1492 1496 1500 1506 1511 1514 1517 1520 1524 1527 1529 1532 1534 1537 1539 1542 1544 1546 1548 1550 1551 1552 1553 1555 1556 1558 1560 1561 1563 1565 1566 1567 1568 1568 1568
1493 1494 1492 1487 1485 1484 1485 1486 1481 1480 1483 1486 1487 1488 1492 1495 1499 1503 1507 1510 1513 1517 1521 1524 1527 1529 1532 1534 1537 1540 1542 1544 1546 1548 1550 1551 1552 1554 1555 1557 1559 1560 1562 1563 1565 1566 1567 1567 1567
1493 1496 1500 1487 1482 1480 1487 1491 1477 1476 1480 1482 1484 1487 1489 1491 1496 1501 1506 1509 1512 1515 1518 1522 1525 1527 1529 1532 1535 1538 1540 1542 1544 1546 1548 1550 1552 1553 1555 1556 1558 1559 1561 1562 1563 1565 1566 1566 1567
1499 1504 1500 1491 1479 1479 1483 1485 1472 1473 1476 1478 1480 1483 1485 1489 1492 1497 1502 1507 1510 1513 1516 1519 1521 1524 1527 1531 1534 1536 1539 1541 1543 1545 1547 1549 1551 1552 1554 1555 1557 1558 1559 1560 1562 1563 1564 1565 1566
1504 1501 1498 1494 1482 1480 1483 1479 1470 1469 1472 1472 1475 1477 1480 1484 1487 1492 1496 1501 1506 1511 1514 1517 1519 1522 1525 1529 1532 1535 1537 1540 1542 1544 1546 1548 1549 1551 1553 1554 1555 1557 1558 1558 1560 1561 1562 1563 1565
1493 1496 1498 1491 1481 1482 1482 1475 1467 1466 1468 1469 1470 1472 1476 1480 1484 1488 1493 1497 1503 1508 1512 1513 1516 1518 1522 1525 1528 1531 1534 1537 1539 1542 1544 1546 1548 1549 1551 1552 1554 1555 1556 1557 1558 1559 1560 1561 1562
1491 1496 1495 1487 1478 1478 1478 1471 1462 1463 1465 1466 1467 1469 1472 1477 1480 1484 1488 1492 1497 1502 1507 1511 1514 1515 1518 1520 1523 1527 1531 1533 1536 1539 1542 1544 1546 1547 1548 1549 1551 1553 1554 1555 1556 1557 1558 1558 1560
1490 1494 1493 1489 1479 1474 1476 1475 1466 1463 1466 1467 1468 1470 1471 1472 1476 1481 1485 1487 1492 1496 1500 1505 1509 1513 1515 1518 1521 1525 1528 1530 1533 1535 1538 1540 1542 1544 1546 1547 1548 1550 1551 1552 1554 1555 1556 1556 1557
1492 1482 1482 1483 1489 1493 1484 1496 1474 1467 1470 1473 1473 1473 1474 1476 1478 1479 1482 1485 1488 1491 1495 1499 1505 1509 1512 1514 1517 1520 1523 1525 1527 1531 1534 1536 1539 1541 1543 1544 1546 1547 1549 1550 1551 1552 1553 1554 1555
1482 1475 1477 1479 1485 1491 1487 1494 1485 1471 1477 1480 1480 1480 1480 1480 1479 1480 1481 1483 1485 1488 1492 1497 1502 1506 1508 1511 1515 1518 1521 1523 1525 1527 1531 1533 1536 1538 1540 1542 1543 1545 1547 1548 1550 1550 1551 1552 1553
1471 1474 1478 1484 1493 1504 1490 1491 1492 1482 1478 1482 1485 1486 1486 1485 1484 1482 1482 1483 1485 1487 1491 1496 1499 1503 1506 1510 1513 1516 1518 1520 1522 1525 1528 1531 1534 1536 1538 1540 1542 1544 1546 1547 1548 1549 1550 1550 1551
1471 1489 1505 1505 1512 1508 1487 1488 1495 1484 1480 1483 1487 1490 1491 1490 1489 1487 1485 1486 1487 1489 1491 1495 1498 1501 1505 1508 1511 1513 1516 1519 1521 1523 1527 1529 1532 1534 1537 1539 1541 1543 1545 1546 1547 1548 1549 1550 1551
1473 1485 1507 1513 1513 1505 1487 1494 1495 1490 1489 1491 1493 1495 1495 1495 1494 1492 1491 1490 1491 1492 1493 1495 1498 1501 1504 1507 1510 1513 1516 1518 1520 1522 1525 1528 1531 1533 1536 1538 1540 1542 1544 1546 1547 1548 1549 1550 1550
1472 1481 1484 1497 1496 1503 1498 1495 1494 1492 1494 1496 1498 1499 1500 1500 1499 1498 1497 1496 1496 1496 1497 1498 1500 1502 1505 1508 1510 1512 1515 1517 1520 1522 1525 1528 1531 1533 1535 1538 1541 1543 1545 1546 1547 1549 1549 1550 1550
1465 1471 1488 1499 1508 1511 1498 1496 1498 1493 1495 1498 1501 1503 1504 1504 1504 1503 1502 1502 1501 1501 1501 1501 1502 1504 1507 1509 1511 1513 1516 1518 1520 1523 1525 1528 1531 1534 1536 1539 1542 1544 1545 1547 1548 1548 1549 1549 1549
1472 1477 1484 1495 1499 1508 1509 1506 1491 1490 1494 1499 1503 1505 1506 1507 1508 1508 1507 1507 1506 1506 1505 1505 1506 1508 1509 1511 1513 1515 1517 1520 1522 1524 1527 1530 1533 1536 1538 1541 1543 1545 1546 1547 1548 1548 1548 1548 1548
1475 1481 1487 1499 1500 1499 1506 1510 1495 1494 1497 1501 1505 1507 1509 1510 1510 1510 1510 1510 1510 1510 1509 1510 1510 1511 1512 1514 1515 1517 1520 1522 1524 1527 1530 1533 1535 1538 1540 1542 1544 1545 1546 1547 1548 1548 1548 1548 1547